Location: Unspecified
(0.0000°N, 0.0000°E)
Time: 07:11:04
(UTC+00:00)

LEMUR 2 DEMBITZ - Pass Details

Date: 21 January 2026
Orbit: 483 x 493 km, 97.4° (Epoch: 10 February)

Event Time Altitude Azimuth Distance (km) Brightness Sun altitude
Rises 04:38:09 0° 134° (SE) 2,582 ? -21.8°
Reaches altitude 10° 04:41:23 10° 102° (ESE) 1,696 ? -21.1°
Maximum altitude 04:42:50 12° 79° (E) 1,569 ? -20.7°
Drops below altitude 10° 04:44:17 10° 55° (NE) 1,692 ? -20.4°
Sets 04:47:30 0° 23° (NNE) 2,568 ? -19.6°
